TimePST,TemperatureF,Dew PointF,Humidity,Sea Level PressureIn,VisibilityMPH,Wind Direction,Wind SpeedMPH,Gust SpeedMPH,PrecipitationIn,Events,Conditions,WindDirDegrees,DateUTC
12:09 AM,25.0,23.0,92,30.03,9.0,NW,6.9,-,0.00,,Overcast,310,2014-02-04 08:09:00
12:56 AM,24.1,21.0,88,30.10,10.0,NW,10.4,-,0.00,,Overcast,320,2014-02-04 08:56:00
1:13 AM,23.0,21.0,92,30.03,2.0,NW,9.2,-,0.00,Snow,Light Snow,320,2014-02-04 09:13:00
1:22 AM,23.0,21.0,92,30.03,2.0,NNW,10.4,-,0.00,Snow,Light Snow,330,2014-02-04 09:22:00
1:31 AM,23.0,19.9,88,30.03,1.5,NNW,9.2,-,0.00,Snow,Light Snow,330,2014-02-04 09:31:00
1:38 AM,23.0,19.9,88,30.03,3.0,North,6.9,-,0.00,Snow,Light Snow,350,2014-02-04 09:38:00
1:56 AM,23.0,19.9,88,30.10,7.0,North,6.9,-,0.00,,Overcast,350,2014-02-04 09:56:00
2:16 AM,21.9,19.9,92,30.04,9.0,NNW,6.9,-,N/A,,Overcast,340,2014-02-04 10:16:00
2:29 AM,21.9,19.9,92,30.05,9.0,NNW,9.2,-,N/A,,Overcast,330,2014-02-04 10:29:00
2:56 AM,21.9,19.0,89,30.11,3.0,NNW,6.9,-,0.00,Snow,Light Snow,340,2014-02-04 10:56:00
2:58 AM,21.9,19.0,89,30.04,2.5,NW,6.9,-,0.00,Snow,Light Snow,320,2014-02-04 10:58:00
3:14 AM,21.9,19.0,89,30.04,2.5,NNW,5.8,-,0.00,Snow,Light Snow,340,2014-02-04 11:14:00
3:26 AM,21.0,19.0,92,30.05,4.0,NW,5.8,-,0.00,Snow,Light Snow,320,2014-02-04 11:26:00
3:56 AM,21.0,18.0,88,30.12,9.0,NNW,6.9,-,0.00,,Overcast,330,2014-02-04 11:56:00
4:56 AM,19.9,17.1,89,30.14,10.0,NW,9.2,-,N/A,,Overcast,320,2014-02-04 12:56:00
5:36 AM,19.9,17.1,89,30.06,10.0,NW,5.8,-,N/A,,Overcast,320,2014-02-04 13:36:00
5:56 AM,19.9,17.1,89,30.15,10.0,NNW,6.9,-,N/A,,Overcast,330,2014-02-04 13:56:00
6:56 AM,19.9,17.1,89,30.16,10.0,NW,8.1,-,N/A,,Overcast,310,2014-02-04 14:56:00
7:04 AM,19.9,17.1,89,30.07,10.0,WNW,6.9,-,N/A,,Overcast,300,2014-02-04 15:04:00
7:56 AM,19.9,16.0,85,30.17,10.0,NW,6.9,-,N/A,,Overcast,320,2014-02-04 15:56:00
8:18 AM,19.9,16.0,85,30.09,10.0,NW,9.2,-,N/A,,Overcast,320,2014-02-04 16:18:00
8:56 AM,19.9,16.0,85,30.20,4.0,NNW,9.2,-,0.00,Snow,Light Snow,330,2014-02-04 16:56:00
9:21 AM,19.9,16.0,85,30.11,9.0,NW,9.2,-,0.00,,Overcast,320,2014-02-04 17:21:00
9:56 AM,21.0,16.0,81,30.21,10.0,NNW,8.1,-,0.00,,Overcast,330,2014-02-04 17:56:00
10:49 AM,21.9,17.1,82,30.13,10.0,NNW,6.9,-,N/A,,Overcast,340,2014-02-04 18:49:00
10:56 AM,21.9,17.1,82,30.22,10.0,NNW,5.8,-,N/A,,Overcast,340,2014-02-04 18:56:00
11:56 AM,21.9,17.1,82,30.22,10.0,NNW,6.9,-,N/A,,Overcast,330,2014-02-04 19:56:00
12:56 PM,23.0,18.0,81,30.21,8.0,NW,10.4,-,0.00,Snow,Light Snow,320,2014-02-04 20:56:00
1:56 PM,23.0,17.1,78,30.21,10.0,North,11.5,-,0.00,,Overcast,350,2014-02-04 21:56:00
2:51 PM,23.0,15.8,74,30.11,10.0,NNW,10.4,-,N/A,,Overcast,340,2014-02-04 22:51:00
2:56 PM,23.0,17.1,78,30.20,10.0,NNW,11.5,-,N/A,,Overcast,330,2014-02-04 22:56:00
3:04 PM,21.9,16.0,78,30.10,10.0,NNW,11.5,-,N/A,,Overcast,340,2014-02-04 23:04:00
3:54 PM,19.4,15.8,86,30.11,4.0,NW,11.5,-,0.00,Snow,Light Snow,320,2014-02-04 23:54:00
3:56 PM,19.9,16.0,85,30.22,4.0,NW,9.2,-,0.00,Snow,Light Snow,320,2014-02-04 23:56:00
4:09 PM,19.9,16.0,85,30.12,2.0,NNW,12.7,-,0.00,Snow,Light Snow,330,2014-02-05 00:09:00
4:18 PM,19.0,16.0,88,30.12,1.5,NW,13.8,-,0.00,Snow,Light Snow,320,2014-02-05 00:18:00
4:28 PM,19.0,16.0,88,30.12,3.0,NNW,12.7,-,0.00,Snow,Light Snow,330,2014-02-05 00:28:00
4:47 PM,19.0,16.0,88,30.12,1.8,NNW,13.8,-,0.00,Snow,Light Snow,330,2014-02-05 00:47:00
4:56 PM,19.0,15.1,85,30.23,1.5,NW,12.7,-,0.00,Snow,Light Snow,320,2014-02-05 00:56:00
5:07 PM,18.0,15.1,88,30.13,2.5,NW,12.7,-,0.00,Snow,Light Snow,320,2014-02-05 01:07:00
5:14 PM,18.0,14.0,84,30.13,2.5,NW,9.2,-,0.00,Snow,Light Snow,320,2014-02-05 01:14:00
5:18 PM,18.0,14.0,84,30.13,3.0,NW,13.8,-,0.00,Snow,Light Snow,320,2014-02-05 01:18:00
5:56 PM,17.1,12.9,84,30.26,5.0,NNW,12.7,-,0.00,Snow,Light Snow,330,2014-02-05 01:56:00
6:18 PM,17.1,12.9,84,30.14,2.5,NNW,9.2,-,0.00,Snow,Light Snow,330,2014-02-05 02:18:00
6:44 PM,16.0,12.0,84,30.15,3.0,NNW,10.4,-,0.00,Snow,Light Snow,330,2014-02-05 02:44:00
6:56 PM,16.0,12.0,84,30.28,4.0,NNW,13.8,-,0.00,Snow,Light Snow,330,2014-02-05 02:56:00
7:08 PM,16.0,12.0,84,30.16,2.0,NW,11.5,-,0.00,Snow,Light Snow,320,2014-02-05 03:08:00
7:15 PM,16.0,12.0,84,30.17,1.5,NW,12.7,-,0.00,Snow,Light Snow,320,2014-02-05 03:15:00
7:46 PM,15.1,10.9,84,30.16,2.0,NW,11.5,-,0.00,Snow,Light Snow,320,2014-02-05 03:46:00
7:56 PM,15.1,10.9,84,30.29,3.0,NNW,10.4,-,0.00,Snow,Light Snow,330,2014-02-05 03:56:00
8:09 PM,15.1,10.9,84,30.17,1.8,NW,9.2,-,0.00,Snow,Light Snow,320,2014-02-05 04:09:00
8:16 PM,15.1,10.9,84,30.17,1.0,NW,11.5,-,0.00,Snow,Light Snow,320,2014-02-05 04:16:00
8:24 PM,15.1,10.9,84,30.17,1.0,NW,11.5,-,0.00,Snow,Light Snow,320,2014-02-05 04:24:00
8:42 PM,15.1,10.9,84,30.18,2.5,NW,10.4,-,0.01,Snow,Light Snow,310,2014-02-05 04:42:00
8:54 PM,15.8,10.4,79,30.18,3.0,NW,10.4,-,0.01,Snow,Light Snow,320,2014-02-05 04:54:00
8:56 PM,15.1,10.9,84,30.30,2.5,NW,11.5,-,0.01,Snow,Light Snow,320,2014-02-05 04:56:00
9:05 PM,15.1,10.9,84,30.19,2.5,NNW,12.7,-,0.00,Snow,Light Snow,330,2014-02-05 05:05:00
9:14 PM,15.1,10.9,84,30.19,1.0,NW,10.4,-,0.00,Snow,Light Snow,310,2014-02-05 05:14:00
9:22 PM,14.0,10.9,88,30.19,1.0,NW,10.4,-,0.00,Snow,Light Snow,320,2014-02-05 05:22:00
9:47 PM,14.0,10.9,88,30.20,2.0,NW,12.7,-,0.00,Snow,Light Snow,320,2014-02-05 05:47:00
9:51 PM,14.0,10.4,86,30.20,3.0,NW,15.0,19.6,0.00,Snow,Light Snow,320,2014-02-05 05:51:00
9:56 PM,14.0,10.0,84,30.32,4.0,NNW,12.7,-,0.00,Snow,Light Snow,330,2014-02-05 05:56:00
10:56 PM,12.9,9.0,84,30.33,4.0,NNW,15.0,-,0.00,Snow,Light Snow,330,2014-02-05 06:56:00
11:04 PM,12.9,9.0,84,30.21,5.0,NNW,13.8,-,0.00,Snow,Light Snow,330,2014-02-05 07:04:00
11:23 PM,12.9,9.0,84,30.22,2.5,NNW,11.5,-,0.00,Snow,Light Snow,330,2014-02-05 07:23:00
11:56 PM,12.0,8.1,84,30.35,2.0,NNW,16.1,-,0.00,Snow,Light Snow,330,2014-02-05 07:56:00